Regional Weather Roundup
Issued by NWS

Current Version | Previous Version | Text Only | Print | Product List | Glossary On
Versions: 1 2 3 4 5 6 7 8 9 10 11 12 13 14 15 16 17 18 19 20 21 22 23 24 25 26 27 28 29 30 31 32 33 34 35 36 37 38 39 40 41 42 43 44 45 46 47 48 49 50
000
ASUS45 KBOI 240910
RWRID

IDAHO REGIONAL WEATHER ROUNDUP
NATIONAL WEATHER SERVICE BOISE ID
300 AM MDT TUE MAY 24 2016

NOTE: "FAIR" INDICATES FEW OR NO CLOUDS BELOW 12000 FEET
WITH NO SIGNIFICANT WEATHER AND/OR OBSTRUCTIONS TO VISIBILITY

IDZ012-014-241000-
SOUTHWEST IDAHO


CITY           SKY/WX    TMP DP  RH WIND       PRES   REMARKS
BOISE          CLEAR     50  37  61 CALM      29.83S
CALDWELL       CLEAR     49  44  83 W9        29.84S
MOUNTAIN HOME  MOCLDY    52  40  62 W5        29.82S
$$

IDZ016-017-241000-
SOUTHCENTRAL IDAHO


CITY           SKY/WX    TMP DP  RH WIND       PRES   REMARKS
BURLEY         PTCLDY    45  40  82 CALM      29.84S
JEROME         MOCLDY    44  41  89 NE8       29.84F
TWIN FALLS     MOCLDY    46  39  76 S10       29.84F
$$

IDZ019>023-241000-
SOUTHEAST IDAHO


CITY           SKY/WX    TMP DP  RH WIND       PRES   REMARKS
IDAHO FALLS    CLOUDY    41  34  76 CALM      29.88S
POCATELLO      CLEAR     41  36  82 E3        29.86F
REXBURG        CLEAR     42  32  67 CALM      29.88S
$$

IDZ006-010-011-018-031-032-241000-
CENTRAL IDAHO MOUNTAINS


CITY           SKY/WX    TMP DP  RH WIND       PRES   REMARKS
MCCALL         PTCLDY    39  35  86 CALM      29.88S
HAILEY         CLEAR     37  32  81 NW8       29.90F WCI  31
STANLEY          N/A     29  24  82 CALM      29.93F
SALMON         CLOUDY    41  36  81 CALM      29.88R
CHALLIS        CLEAR     37  31  78 CALM      29.89S
$$

IDZ002-004-006-007-026-241000-
NORTHERN IDAHO


CITY           SKY/WX    TMP DP  RH WIND       PRES   REMARKS
LEWISTON       CLOUDY    53  45  74 E5        29.86S
LOWELL           N/A     47  44  90 CALM      29.92S
COEUR D`ALENE  CLOUDY    48  46  93 CALM      29.86R
MULLAN PASS    LGT RAIN  34  34 100 W3        29.88S VSB 1/4
$$



USA.gov is the U.S. government's official web portal to all federal, state and local government web resources and services.